Regional Weather Roundup
Issued by NWS

Home | Current Version | Previous Version | Text Only | Print | Product List | Glossary On
Versions: 1 2 3 4 5 6 7 8 9 10 11 12 13 14 15 16 17 18 19 20 21 22 23 24 25 26 27 28 29 30 31 32 33 34 35 36 37 38 39 40 41 42 43 44 45 46 47 48 49 50
000
ASUS42 KFFC 300503
RWRGA
WEATHER ROUNDUP FOR GEORGIA
NATIONAL WEATHER SERVICE PEACHTREE CITY GA
100 AM EDT WED JUL 30 2014

NOTE: "FAIR" INDICATES FEW OR NO CLOUDS BELOW 12,000 FEET WITH NO
SIGNIFICANT WEATHER AND/OR OBSTRUCTIONS TO VISIBILITY.

* = USE WITH CAUTION. THE STATIONS MARKED WITH AN ASTERISK MAY NOT
REPORT WEATHER SUCH AS PRECIPITATION, FOG, OR THUNDER AND ARE NOT
QUALITY CONTROLLED BY NWS.

THE REMARK "TC" DENOTES TEMPERATURE READING IN DEGREES CELSIUS.

GAZ001>058-300600-
NORTH GEORGIA

CITY           SKY/WX    TMP DP  RH WIND       PRES   REMARKS
ATLANTA        CLEAR     67  52  58 N10       30.03F
ATHENS         CLEAR     68  55  63 NW6       30.02R
CHAMBLEE       CLEAR     65  51  60 N6        30.04S
PEACHTREE CITY CLEAR     67  55  65 NW5       30.05S
ROME           CLEAR     62  54  74 NW6       30.06S
WEST ATLANTA   CLEAR     67  53  61 CALM      30.04F
GAINESVILLE    CLEAR     66  51  58 NW7       30.06S
CARTERSVILLE   CLEAR     58  52  80 SE3       30.06F


CITY           SKY/WX    TMP DP  RH WIND       PRES   REMARKS
DALTON*        CLEAR     59  55  88 CALM      30.07S
MARIETTA       CLEAR     66  53  62 NW6       30.05S
$$

GAZ059>098-102>109-300600-
CENTRAL GEORGIA

CITY           SKY/WX    TMP DP  RH WIND       PRES   REMARKS
AUGUSTA-BUSH   CLEAR     68  62  81 CALM      29.96S
AUGUSTA-DANIEL MOCLDY    79  58  48 N8        29.98S
COLUMBUS       CLEAR     71  57  61 N6        30.02S
MACON          CLEAR     66  63  90 W6        30.00S
ROBINS AFB     CLEAR     68  62  80 N7        29.99S


CITY           SKY/WX    TMP DP  RH WIND       PRES   REMARKS
LAGRANGE*      CLEAR     71  60  67 N5        30.04F
SYLVANIA*      CLEAR     69  69 100 CALM      29.96F
MILLEDGEVILLE* CLEAR     68  54  60 NW3       30.00R
$$

GAZ099>101-110>166-300600-
SOUTH GEORGIA

CITY           SKY/WX    TMP DP  RH WIND       PRES   REMARKS
SAVANNAH       CLOUDY    78  69  73 CALM      29.95S
VALDOSTA       CLEAR     71  62  73 CALM      29.98R
ALMA           MOCLDY    72  59  63 N3        29.96S
ST SIMONS      CLEAR     82  72  71 E5        29.94S
FT STEWART     PTCLDY    73  67  83 CALM      29.94F
ALBANY         CLEAR     71  61  70 CALM      30.01S
HUNTER AFB     CLOUDY    76  73  90 W5        29.93S
MOODY AFB      CLEAR     72  68  88 NW6       29.97S
BRUNSWICK      PTCLDY    77  72  83 CALM      29.95S


CITY           SKY/WX    TMP DP  RH WIND       PRES   REMARKS
BAINBRIDGE*    CLEAR     73  66  78 NW3       30.00S
MOULTRIE*      CLEAR     72  64  78 CALM      30.00S
VIDALIA*         N/A     72  63  73 CALM      29.97F
WAYCROSS*      CLOUDY    75  67  75 CALM      29.96S
DOUGLAS*       CLEAR     73  61  64 NW5       29.99S
$$


USA.gov is the U.S. government's official web portal to all federal, state and local government web resources and services.